Change the Weather History Date:

Saturday, December 1, 2012

  Actual Average (KAXO) Record (KAXO)
Temperature  
Mean Temperature 68 °F -  
Max Temperature 78 °F 62 °F 73 °F (2014)
Min Temperature 57 °F 59 °F 51 °F (2008)
Cooling Degree Days 2    
Growing Degree Days 18 (Base 50)    
Moisture  
Dew Point 64 °F    
Average Humidity 90    
Maximum Humidity 100    
Minimum Humidity 61    
Precipitation  
Precipitation 0.00 in - - ()
Sea Level Pressure  
Sea Level Pressure 30.21 in    
Wind  
Wind Speed 5 mph (East)    
Max Wind Speed 14 mph    
Max Gust Speed 18 mph    
Visibility 10 miles    
Events      
Averages and records for this station are not official NWS values.
T = Trace of Precipitation, MM = Missing Value Source: NWS Daily Summary

Daily Weather History Graph

Daily Weather History Graph

Search for Another Location

Airport or City:

Trip Planner

Search our weather history database for the weather conditions in past years. The results will help you decide how hot, cold, wet, or windy it might be!

Date:

Astronomy

Dec. 01, 2012 Rise Set
Actual Time 6:38 AM CST 5:01 PM CST
Civil Twilight 6:12 AM CST 5:27 PM CST
Nautical Twilight 5:43 AM CST 5:57 PM CST
Astronomical Twilight 5:14 AM CST 6:26 PM CST
Moon 7:48 PM CST (12/1) 8:54 AM CST (12/1)
Length of Visible Light 11h 15m
Length of Day
10h 23m
Waning Gibbous, 91% of the Moon is Illuminated
Dec 1
Waning Gibbous
Dec 6
Last Quarter
Dec 13
New
Dec 19
First Quarter
Dec 28
Full

Hourly Weather History & Observations

Time (CST) Temp. Dew Point Humidity Pressure Visibility Wind Dir Wind Speed Gust Speed Precip Events Conditions
12:15 AM 62.6 °F 62.6 °F 100% 30.19 in 10.0 mi ENE 5.8 mph - N/A   Unknown
12:35 AM 62.6 °F 62.6 °F 100% 30.20 in 10.0 mi ENE 4.6 mph - N/A   Unknown
12:55 AM 60.8 °F 60.8 °F 100% 30.19 in 10.0 mi East 4.6 mph - N/A   Unknown
1:15 AM 62.6 °F 62.6 °F 100% 30.19 in 10.0 mi East 5.8 mph - N/A   Unknown
1:35 AM 62.6 °F 62.6 °F 100% 30.19 in 10.0 mi East 5.8 mph - N/A   Unknown
1:55 AM 62.6 °F 62.6 °F 100% 30.19 in 10.0 mi East 4.6 mph - N/A   Unknown
2:15 AM 60.8 °F 60.8 °F 100% 30.19 in 10.0 mi ENE 3.5 mph - N/A   Unknown
2:55 AM 60.8 °F 60.8 °F 100% 30.19 in 10.0 mi ENE 3.5 mph - N/A   Unknown
3:15 AM 60.8 °F 60.8 °F 100% 30.19 in 10.0 mi NE 3.5 mph - N/A   Unknown
3:35 AM 60.8 °F 60.8 °F 100% 30.19 in 10.0 mi ENE 4.6 mph - N/A   Unknown
3:55 AM 60.8 °F 60.8 °F 100% 30.18 in 10.0 mi ENE 3.5 mph - N/A   Unknown
4:15 AM 60.8 °F 60.8 °F 100% 30.19 in 10.0 mi Calm Calm - N/A   Unknown
4:35 AM 60.8 °F 60.8 °F 100% 30.19 in 10.0 mi Calm Calm - N/A   Unknown
4:55 AM 59.0 °F 59.0 °F 100% 30.20 in 10.0 mi Calm Calm - N/A   Unknown
5:15 AM 59.0 °F 59.0 °F 100% 30.20 in 7.0 mi North 3.5 mph - N/A   Unknown
5:35 AM 57.2 °F 57.2 °F 100% 30.20 in 7.0 mi Calm Calm - N/A   Unknown
6:35 AM 60.8 °F 60.8 °F 100% 30.21 in 10.0 mi North - - N/A   Unknown
6:55 AM 60.8 °F 60.8 °F 100% 30.21 in 10.0 mi NNE 3.5 mph - N/A   Unknown
7:15 AM 62.6 °F 62.6 °F 100% 30.23 in 10.0 mi NNE 4.6 mph - N/A   Unknown
7:35 AM 62.6 °F 62.6 °F 100% 30.23 in 10.0 mi NE 5.8 mph - N/A   Unknown
7:55 AM 64.4 °F 64.4 °F 100% 30.23 in 10.0 mi ENE 4.6 mph - N/A   Unknown
8:15 AM 66.2 °F 66.2 °F 100% 30.23 in 10.0 mi NE 5.8 mph - N/A   Unknown
8:35 AM 68.0 °F 68.0 °F 100% 30.23 in 10.0 mi ENE 5.8 mph - N/A   Unknown
8:55 AM 69.8 °F 68.0 °F 94% 30.24 in 10.0 mi ENE 6.9 mph - N/A   Unknown
9:15 AM 69.8 °F 69.8 °F 100% 30.25 in 10.0 mi ENE 5.8 mph - N/A   Unknown
9:35 AM 71.6 °F 69.8 °F 94% 30.25 in 10.0 mi East 8.1 mph - N/A   Clear
9:55 AM 71.6 °F 68.0 °F 88% 30.25 in 10.0 mi East 8.1 mph - N/A   Scattered Clouds
10:15 AM 71.6 °F 68.0 °F 88% 30.25 in 10.0 mi ENE 6.9 mph - N/A   Mostly Cloudy
10:35 AM 73.4 °F 68.0 °F 83% 30.25 in 10.0 mi East 9.2 mph - N/A   Scattered Clouds
10:55 AM 75.2 °F 68.0 °F 78% 30.24 in 10.0 mi East 6.9 mph - N/A   Clear
11:15 AM 75.2 °F 66.2 °F 73% 30.23 in 10.0 mi East 6.9 mph - N/A   Clear
11:35 AM 77.0 °F 66.2 °F 69% 30.23 in 10.0 mi East 6.9 mph - N/A   Unknown
11:55 AM 77.0 °F 64.4 °F 65% 30.22 in 10.0 mi East 9.2 mph - N/A   Unknown
12:15 PM 77.0 °F 64.4 °F 65% 30.21 in 10.0 mi East 6.9 mph - N/A   Unknown
12:35 PM 75.2 °F 64.4 °F 69% 30.20 in 10.0 mi East 6.9 mph - N/A   Mostly Cloudy
12:55 PM 77.0 °F 64.4 °F 65% 30.19 in 10.0 mi East 8.1 mph - N/A   Scattered Clouds
1:15 PM 77.0 °F 64.4 °F 65% 30.19 in 10.0 mi East 9.2 mph - N/A   Scattered Clouds
1:35 PM 77.0 °F 64.4 °F 65% 30.19 in 10.0 mi ESE 12.7 mph - N/A   Scattered Clouds
1:55 PM 78.8 °F 64.4 °F 61% 30.18 in 10.0 mi ESE 12.7 mph 17.3 mph N/A   Clear
2:15 PM 77.0 °F 64.4 °F 65% 30.18 in 10.0 mi ESE 13.8 mph 17.3 mph N/A   Scattered Clouds
2:35 PM 77.0 °F 64.4 °F 65% 30.18 in 10.0 mi ESE 11.5 mph 17.3 mph N/A   Unknown
2:55 PM 77.0 °F 64.4 °F 65% 30.18 in 10.0 mi ESE 10.4 mph 16.1 mph N/A   Unknown
3:15 PM 75.2 °F 62.6 °F 65% 30.18 in 10.0 mi ESE 11.5 mph 16.1 mph N/A   Unknown
3:35 PM 73.4 °F 62.6 °F 69% 30.18 in 10.0 mi ESE 11.5 mph 18.4 mph N/A   Unknown
3:55 PM 73.4 °F 62.6 °F 69% 30.18 in 10.0 mi ESE 6.9 mph - N/A   Unknown
4:15 PM 71.6 °F 62.6 °F 73% 30.18 in 10.0 mi ESE 10.4 mph - N/A   Unknown
4:35 PM 71.6 °F 62.6 °F 73% 30.18 in 10.0 mi East 6.9 mph - N/A   Unknown
4:55 PM 69.8 °F 64.4 °F 83% 30.19 in 10.0 mi East 5.8 mph - N/A   Clear
5:15 PM 69.8 °F 64.4 °F 83% 30.19 in 10.0 mi East 3.5 mph - N/A   Clear
5:55 PM 68.0 °F 64.4 °F 88% 30.20 in 10.0 mi ESE 3.5 mph - N/A   Unknown
6:15 PM 66.2 °F 64.4 °F 94% 30.20 in 10.0 mi ESE 3.5 mph - N/A   Unknown
6:35 PM 66.2 °F 66.2 °F 100% 30.20 in 10.0 mi ESE 3.5 mph - N/A   Unknown
6:55 PM 64.4 °F 64.4 °F 100% 30.21 in 10.0 mi East 3.5 mph - N/A   Unknown
7:15 PM 64.4 °F 64.4 °F 100% 30.21 in 10.0 mi East 3.5 mph - N/A   Unknown
7:35 PM 64.4 °F 64.4 °F 100% 30.21 in 10.0 mi East 3.5 mph - N/A   Unknown
7:55 PM 64.4 °F 64.4 °F 100% 30.21 in 10.0 mi East 3.5 mph - N/A   Unknown
8:15 PM 64.4 °F 64.4 °F 100% 30.21 in 10.0 mi Calm Calm - N/A   Unknown
8:35 PM 64.4 °F 64.4 °F 100% 30.21 in 10.0 mi East 3.5 mph - N/A   Unknown
8:55 PM 64.4 °F 64.4 °F 100% 30.21 in 10.0 mi East 4.6 mph - N/A   Unknown
9:15 PM 66.2 °F 66.2 °F 100% 30.21 in 10.0 mi East 3.5 mph - N/A   Unknown
9:35 PM 66.2 °F 66.2 °F 100% 30.21 in 10.0 mi East 3.5 mph - N/A   Unknown
9:55 PM 64.4 °F 64.4 °F 100% 30.21 in 10.0 mi Calm Calm - N/A   Unknown
10:15 PM 62.6 °F 62.6 °F 100% 30.21 in 10.0 mi North - - N/A   Unknown
10:35 PM 62.6 °F 62.6 °F 100% 30.21 in 10.0 mi East 3.5 mph - N/A   Unknown
10:55 PM 60.8 °F 60.8 °F 100% 30.20 in 10.0 mi East 3.5 mph - N/A   Unknown
11:15 PM 60.8 °F 60.8 °F 100% 30.20 in 10.0 mi East 3.5 mph - N/A   Unknown
11:35 PM 60.8 °F 60.8 °F 100% 30.20 in 10.0 mi East 3.5 mph - N/A   Unknown
11:55 PM 59.0 °F 59.0 °F 100% 30.20 in 10.0 mi East 4.6 mph - N/A   Unknown